Date String (YYYY-MM-DD hh:mm:ss) UTC,Instrument flags,Ambient pressure (hPa),Sample flow (lpm),Bypass flow (lpm),Sample temperature (°C),Ambient temperature (°C),ASC tube jacket temperature (°C),LED temperature (°C),Box temperature (°C),Sample RH (%),Span deviation,Mass concentration (μg/m³),Mass concentration (μg/m³),Mass concentration (μg/m³)
DateTimeUTC,F1_M11,P_M11,Q1_M11,Q2_M11,T1_M11,T2_M11,T3_M11,T4_M11,T5_M11,U1_M11,ZSPAN_M11,X0_M11,X2_M11,X1_M11
2021-10-13 06:00:00,,0812.8,4.99,0.00,26.1,25.2,00.0,35.2,27.8,18.6,0000.0,0002.56,0001.35,0000.89
2021-10-13 06:01:00,,0812.7,5.00,0.00,26.0,25.2,00.0,35.2,27.8,18.7,0000.0,0002.51,0001.33,0000.89
2021-10-13 06:02:00,,0812.7,5.01,0.00,26.0,25.2,00.0,35.2,27.8,18.7,0000.0,0002.56,0001.34,0000.90
2021-10-13 06:03:00,,0812.7,5.00,0.00,25.9,25.1,00.0,35.2,27.7,18.7,0000.0,0002.48,0001.31,0000.90
2021-10-13 06:04:00,,0812.7,5.00,0.00,25.9,25.0,00.0,35.2,27.6,18.7,0000.0,0002.26,0001.31,0000.91
2021-10-13 06:05:00,,0812.7,5.00,0.00,25.9,24.9,00.0,35.1,27.6,18.8,0000.0,0002.17,0001.28,0000.91
2021-10-13 06:06:00,,0812.7,5.01,0.00,25.8,24.9,00.0,35.1,27.6,18.8,0000.0,0002.17,0001.28,0000.90
2021-10-13 06:07:00,,0812.7,5.00,0.00,25.8,24.9,00.0,35.1,27.5,18.9,0000.0,0002.23,0001.29,0000.89
2021-10-13 06:08:00,,0812.6,5.01,0.00,25.8,24.9,00.0,35.1,27.5,18.9,0000.0,0002.17,0001.26,0000.88
2021-10-13 06:09:00,,0812.5,5.00,0.00,25.7,24.8,00.0,35.1,27.5,19.0,0000.0,0002.12,0001.22,0000.87
2021-10-13 06:10:00,,0812.5,5.00,0.00,25.7,24.8,00.0,35.0,27.4,19.0,0000.0,0002.16,0001.21,0000.86
2021-10-13 06:11:00,,0812.5,5.00,0.00,25.6,24.7,00.0,35.0,27.3,19.1,0000.0,0002.17,0001.22,0000.86
2021-10-13 06:12:00,,0812.6,5.01,0.00,25.6,24.7,00.0,35.0,27.3,19.2,0000.0,0002.11,0001.20,0000.86
2021-10-13 06:13:00,,0812.5,4.99,0.00,25.6,24.6,00.0,34.9,27.2,19.2,0000.0,0002.06,0001.19,0000.85
2021-10-13 06:14:00,,0812.6,4.99,0.00,25.5,24.6,00.0,34.9,27.2,19.3,0000.0,0002.29,0001.26,0000.86
2021-10-13 06:15:00,,0812.6,5.01,0.00,25.5,24.5,00.0,34.9,27.2,19.4,0000.0,0002.51,0001.28,0000.87
2021-10-13 06:16:00,,0812.6,5.01,0.00,25.4,24.5,00.0,34.8,27.1,19.6,0000.0,0002.89,0001.37,0000.89
2021-10-13 06:17:00,,0812.6,4.99,0.00,25.4,24.5,00.0,34.8,27.1,21.2,0000.0,0003.07,0001.44,0000.92
2021-10-13 06:18:00,,0812.5,4.99,0.00,25.3,24.4,00.0,34.8,27.0,21.0,0000.0,0003.14,0001.46,0000.95
2021-10-13 06:19:00,,0812.4,5.00,0.00,25.3,24.3,00.0,34.7,26.9,20.0,0000.0,0003.98,0001.54,0000.99
2021-10-13 06:20:00,,0812.4,5.00,0.00,25.2,24.3,00.0,34.7,26.8,19.8,0000.0,0004.34,0001.60,0001.01
2021-10-13 06:21:00,,0812.4,4.99,0.00,25.2,24.2,00.0,34.7,26.8,19.8,0000.0,0004.59,0001.64,0001.05
2021-10-13 06:22:00,,0812.4,5.00,0.00,25.1,24.1,00.0,34.6,26.7,19.8,0000.0,0005.36,0001.73,0001.08
2021-10-13 06:23:00,,0812.4,4.99,0.00,25.1,24.1,00.0,34.6,26.7,19.8,0000.0,0005.82,0001.79,0001.11
2021-10-13 06:24:00,,0812.4,5.00,0.00,25.0,24.0,00.0,34.5,26.6,19.8,0000.0,0005.76,0001.79,0001.13
2021-10-13 06:25:00,,0812.5,5.00,0.00,24.9,24.0,00.0,34.5,26.6,19.9,0000.0,0005.54,0001.76,0001.15
2021-10-13 06:26:00,,0812.5,5.00,0.00,24.9,23.9,00.0,34.4,26.5,19.9,0000.0,0005.30,0001.74,0001.15
2021-10-13 06:27:00,,0812.5,5.01,0.00,24.8,23.9,00.0,34.4,26.5,19.9,0000.0,0005.02,0001.70,0001.16
2021-10-13 06:28:00,,0812.4,5.00,0.00,24.8,23.8,00.0,34.4,26.4,20.0,0000.0,0004.96,0001.68,0001.17
2021-10-13 06:29:00,,0812.4,4.99,0.00,24.7,23.7,00.0,34.3,26.4,20.0,0000.0,0004.91,0001.69,0001.17
2021-10-13 06:30:00,,0812.3,5.02,0.00,24.7,23.7,00.0,34.3,26.3,20.0,0000.0,0004.15,0001.66,0001.17
2021-10-13 06:31:00,,0812.3,5.00,0.00,24.6,23.6,00.0,34.2,26.2,20.1,0000.0,0003.85,0001.62,0001.17
2021-10-13 06:32:00,,0812.2,4.99,0.00,24.5,23.5,00.0,34.1,26.1,20.1,0000.0,0003.64,0001.62,0001.17
2021-10-13 06:33:00,,0812.3,4.99,0.00,24.4,23.4,00.0,34.1,26.0,20.2,0000.0,0003.01,0001.57,0001.15
2021-10-13 06:34:00,,0812.4,5.00,0.00,24.4,23.3,00.0,34.0,26.0,20.2,0000.0,0004.12,0001.60,0001.16
2021-10-13 06:35:00,,0812.4,5.00,0.00,24.4,23.3,00.0,34.0,26.0,20.3,0000.0,0004.11,0001.59,0001.16
2021-10-13 06:36:00,,0812.4,5.00,0.00,24.3,23.3,00.0,33.9,25.9,20.4,0000.0,0004.13,0001.59,0001.15
2021-10-13 06:37:00,,0812.4,5.00,0.00,24.3,23.2,00.0,33.9,25.9,20.4,0000.0,0004.16,0001.60,0001.14
2021-10-13 06:38:00,,0812.4,5.00,0.00,24.2,23.2,00.0,33.8,25.9,20.4,0000.0,0004.35,0001.68,0001.14
2021-10-13 06:39:00,,0812.4,5.02,0.00,24.2,23.2,00.0,33.8,25.8,20.4,0000.0,0004.42,0001.67,0001.14
2021-10-13 06:40:00,,0812.3,5.02,0.00,24.2,23.2,00.0,33.7,25.8,20.4,0000.0,0004.33,0001.63,0001.13
2021-10-13 06:41:00,,0812.2,4.99,0.00,24.1,23.1,00.0,33.7,25.7,20.4,0000.0,0004.34,0001.62,0001.13
2021-10-13 06:42:00,,0812.2,5.01,0.00,24.1,23.1,00.0,33.6,25.6,20.5,0000.0,0004.41,0001.63,0001.13
2021-10-13 06:43:00,,0812.3,4.99,0.00,24.0,23.1,00.0,33.6,25.6,20.5,0000.0,0004.34,0001.61,0001.14
2021-10-13 06:44:00,,0812.4,5.00,0.00,24.0,23.0,00.0,33.5,25.6,20.6,0000.0,0004.15,0001.58,0001.14
2021-10-13 06:45:00,,0812.3,4.99,0.00,23.9,23.0,00.0,33.5,25.5,20.6,0000.0,0003.08,0001.56,0001.13
2021-10-13 06:46:00,,0812.3,5.01,0.00,23.9,23.0,00.0,33.5,25.5,20.6,0000.0,0002.87,0001.58,0001.13
2021-10-13 06:47:00,,0812.3,5.00,0.00,23.9,22.9,00.0,33.4,25.5,20.6,0000.0,0002.88,0001.59,0001.12
2021-10-13 06:48:00,,0812.3,4.98,0.00,23.8,22.9,00.0,33.4,25.5,20.5,0000.0,0002.91,0001.61,0001.12
2021-10-13 06:49:00,,0812.3,5.00,0.00,23.8,22.9,00.0,33.4,25.5,20.5,0000.0,0002.73,0001.52,0001.11
2021-10-13 06:50:00,,0812.2,5.01,0.00,23.8,22.9,00.0,33.3,25.4,20.5,0000.0,0002.55,0001.49,0001.11
2021-10-13 06:51:00,,0812.1,5.00,0.00,23.7,22.8,00.0,33.3,25.3,20.6,0000.0,0002.63,0001.51,0001.11
2021-10-13 06:52:00,,0812.2,4.98,0.00,23.7,22.8,00.0,33.2,25.3,20.6,0000.0,0002.65,0001.51,0001.10
2021-10-13 06:53:00,,0812.1,5.00,0.00,23.7,22.7,00.0,33.2,25.2,20.6,0000.0,0002.55,0001.50,0001.09
2021-10-13 06:54:00,,0812.1,5.01,0.00,23.6,22.7,00.0,33.1,25.2,20.6,0000.0,0002.59,0001.52,0001.07
2021-10-13 06:55:00,,0812.2,5.00,0.00,23.6,22.7,00.0,33.1,25.2,20.6,0000.0,0002.66,0001.53,0001.06
2021-10-13 06:56:00,,0812.2,4.99,0.00,23.6,22.7,00.0,33.1,25.2,20.6,0000.0,0002.48,0001.48,0001.05
2021-10-13 06:57:00,,0812.2,5.02,0.00,23.5,22.7,00.0,33.0,25.2,20.7,0000.0,0002.57,0001.48,0001.06
2021-10-13 06:58:00,,0812.2,4.99,0.00,23.5,22.6,00.0,33.0,25.1,20.7,0000.0,0002.66,0001.47,0001.05
2021-10-13 06:59:00,,0812.2,5.00,0.00,23.5,22.6,00.0,33.0,25.1,20.7,0000.0,0002.62,0001.44,0001.05
